• In Hungary
  • List of Countries
  • For 7 days
  • Water Temperature
  • Satellite Maps
  • Weather Map
  • News
  • Weather Widgets
  • user-avatar
    Login

    Hourly Weather Surprise

    Today, 20 January, Saturday

    Time Temperature Precipitation Wind Pressure Humidity
    00:00 +16°C° 0 mm 1 mps 726 mmHg 30%
    01:00 +16°C° 0 mm 1 mps 726 mmHg 30%
    02:00 +16°C° 0 mm 2 mps 725 mmHg 29%
    03:00 +16°C° 0 mm 2 mps 725 mmHg 30%
    04:00 +15°C° 0 mm 2 mps 725 mmHg 31%
    05:00 +14°C° 0 mm 3 mps 725 mmHg 32%
    06:00 +14°C° 0 mm 3 mps 725 mmHg 38%
    07:00 +13°C° 0 mm 4 mps 725 mmHg 44%
    08:00 +13°C° 0 mm 4 mps 725 mmHg 49%
    09:00 +13°C° 0.2 mm 5 mps 726 mmHg 50%
    10:00 +12°C° 0.2 mm 5 mps 726 mmHg 51%
    11:00 +12°C° 0.2 mm 5 mps 727 mmHg 52%
    12:00 +13°C° 0 mm 6 mps 727 mmHg 49%
    13:00 +13°C° 0 mm 6 mps 727 mmHg 46%
    14:00 +13°C° 0 mm 6 mps 727 mmHg 43%
    15:00 +13°C° 0.2 mm 6 mps 727 mmHg 41%
    16:00 +14°C° 0.2 mm 7 mps 727 mmHg 39%
    17:00 +14°C° 0.2 mm 7 mps 727 mmHg 37%
    18:00 +12°C° 0.3 mm 7 mps 728 mmHg 39%
    19:00 +11°C° 0.3 mm 6 mps 728 mmHg 41%
    20:00 +10°C° 0.3 mm 6 mps 729 mmHg 43%
    21:00 +10°C° 0 mm 6 mps 729 mmHg 42%
    22:00 +9°C° 0 mm 5 mps 729 mmHg 41%
    23:00 +9°C° 0 mm 5 mps 730 mmHg 40%

    Tomorrow, 21 January, Sunday

    Time Temperature Precipitation Wind Pressure Humidity
    00:00 +8°C° 0 mm 5 mps 730 mmHg 40%
    01:00 +8°C° 0 mm 5 mps 730 mmHg 40%
    02:00 +8°C° 0 mm 5 mps 731 mmHg 40%
    03:00 +7°C° 0 mm 5 mps 731 mmHg 41%
    04:00 +7°C° 0 mm 5 mps 731 mmHg 41%
    05:00 +6°C° 0 mm 4 mps 732 mmHg 42%
    06:00 +6°C° 0 mm 4 mps 732 mmHg 43%
    07:00 +7°C° 0 mm 3 mps 733 mmHg 43%
    08:00 +5°C° 0 mm 3 mps 734 mmHg 44%
    09:00 +8°C° 0 mm 3 mps 734 mmHg 38%
    10:00 +10°C° 0 mm 3 mps 734 mmHg 33%
    11:00 +11°C° 0 mm 3 mps 735 mmHg 27%
    12:00 +12°C° 0 mm 4 mps 734 mmHg 24%
    13:00 +13°C° 0 mm 4 mps 734 mmHg 22%
    14:00 +14°C° 0 mm 5 mps 733 mmHg 19%
    15:00 +14°C° 0 mm 5 mps 733 mmHg 19%
    16:00 +14°C° 0 mm 4 mps 733 mmHg 19%
    17:00 +14°C° 0 mm 4 mps 733 mmHg 19%
    18:00 +13°C° 0 mm 4 mps 734 mmHg 22%
    19:00 +12°C° 0 mm 3 mps 734 mmHg 24%
    20:00 +11°C° 0 mm 3 mps 735 mmHg 26%
    21:00 +10°C° 0 mm 3 mps 735 mmHg 28%
    22:00 +10°C° 0 mm 2 mps 735 mmHg 29%
    23:00 +9°C° 0 mm 2 mps 736 mmHg 30%

    Day after tomorrow, 22 January, Monday

    Time Temperature Precipitation Wind Pressure Humidity
    00:00 +9°C° 0 mm 2 mps 735 mmHg 31%
    01:00 +8°C° 0 mm 2 mps 735 mmHg 32%
    02:00 +8°C° 0 mm 2 mps 735 mmHg 33%
    03:00 +8°C° 0 mm 2 mps 735 mmHg 34%
    04:00 +7°C° 0 mm 2 mps 735 mmHg 34%
    05:00 +7°C° 0 mm 2 mps 735 mmHg 35%
    06:00 +7°C° 0 mm 2 mps 735 mmHg 34%
    07:00 +7°C° 0 mm 2 mps 735 mmHg 33%
    08:00 +8°C° 0 mm 2 mps 735 mmHg 33%
    09:00 +9°C° 0 mm 2 mps 735 mmHg 29%
    10:00 +12°C° 0 mm 2 mps 735 mmHg 25%
    11:00 +13°C° 0 mm 2 mps 735 mmHg 21%
    12:00 +14°C° 0 mm 1 mps 734 mmHg 19%
    13:00 +15°C° 0 mm 1 mps 733 mmHg 17%
    14:00 +18°C° 0 mm 1 mps 732 mmHg 15%
    15:00 +18°C° 0 mm 1 mps 732 mmHg 15%
    16:00 +18°C° 0 mm 1 mps 732 mmHg 16%
    17:00 +18°C° 0 mm 1 mps 731 mmHg 16%
    18:00 +16°C° 0 mm 1 mps 731 mmHg 17%
    19:00 +15°C° 0 mm 2 mps 732 mmHg 19%
    20:00 +13°C° 0 mm 2 mps 732 mmHg 20%
    21:00 +13°C° 0 mm 2 mps 732 mmHg 22%
    22:00 +13°C° 0 mm 2 mps 732 mmHg 23%
    23:00 +12°C° 0 mm 2 mps 732 mmHg 24%

    23 January, Tuesday

    Time Temperature Precipitation Wind Pressure Humidity
    00:00 +12°C° 0 mm 2 mps 732 mmHg 25%
    01:00 +10°C° 0 mm 3 mps 732 mmHg 25%
    02:00 +10°C° 0 mm 3 mps 731 mmHg 26%
    03:00 +10°C° 0 mm 3 mps 731 mmHg 26%
    04:00 +9°C° 0 mm 3 mps 731 mmHg 26%
    05:00 +9°C° 0 mm 3 mps 731 mmHg 27%
    06:00 +9°C° 0 mm 2 mps 731 mmHg 27%
    07:00 +9°C° 0 mm 2 mps 732 mmHg 27%
    08:00 +9°C° 0 mm 2 mps 732 mmHg 27%
    09:00 +12°C° 0 mm 2 mps 732 mmHg 23%
    10:00 +14°C° 0 mm 2 mps 732 mmHg 20%
    11:00 +17°C° 0 mm 2 mps 732 mmHg 16%
    12:00 +18°C° 0 mm 2 mps 731 mmHg 15%
    13:00 +20°C° 0 mm 1 mps 730 mmHg 13%
    14:00 +21°C° 0 mm 1 mps 730 mmHg 12%
    15:00 +21°C° 0 mm 1 mps 730 mmHg 13%
    16:00 +21°C° 0 mm 1 mps 730 mmHg 14%
    17:00 +21°C° 0 mm 1 mps 730 mmHg 15%
    18:00 +20°C° 0 mm 1 mps 730 mmHg 17%
    19:00 +18°C° 0 mm 1 mps 731 mmHg 18%
    20:00 +15°C° 0 mm 1 mps 732 mmHg 20%
    21:00 +15°C° 0 mm 1 mps 732 mmHg 21%
    22:00 +14°C° 0 mm 1 mps 732 mmHg 22%
    23:00 +14°C° 0 mm 2 mps 733 mmHg 23%

    24 January, Wednesday

    Time Temperature Precipitation Wind Pressure Humidity
    00:00 +14°C° 0 mm 2 mps 733 mmHg 24%
    01:00 +12°C° 0 mm 3 mps 733 mmHg 25%
    02:00 +12°C° 0 mm 3 mps 733 mmHg 26%
    03:00 +11°C° 0 mm 3 mps 733 mmHg 27%
    04:00 +11°C° 0 mm 3 mps 733 mmHg 27%
    05:00 +11°C° 0 mm 3 mps 733 mmHg 28%
    06:00 +10°C° 0 mm 3 mps 733 mmHg 28%
    07:00 +10°C° 0 mm 3 mps 734 mmHg 28%
    08:00 +10°C° 0 mm 3 mps 734 mmHg 28%
    09:00 +12°C° 0 mm 3 mps 734 mmHg 25%
    10:00 +16°C° 0 mm 3 mps 734 mmHg 21%
    11:00 +18°C° 0 mm 3 mps 734 mmHg 18%
    12:00 +19°C° 0 mm 3 mps 733 mmHg 16%
    13:00 +20°C° 0 mm 3 mps 732 mmHg 15%
    14:00 +22°C° 0 mm 3 mps 732 mmHg 13%
    15:00 +23°C° 0 mm 2 mps 732 mmHg 13%
    16:00 +23°C° 0 mm 2 mps 731 mmHg 14%
    17:00 +23°C° 0 mm 2 mps 731 mmHg 14%
    18:00 +20°C° 0 mm 2 mps 731 mmHg 16%
    19:00 +18°C° 0 mm 2 mps 731 mmHg 18%
    20:00 +18°C° 0 mm 1 mps 732 mmHg 19%
    21:00 +16°C° 0 mm 2 mps 732 mmHg 20%
    22:00 +16°C° 0 mm 2 mps 731 mmHg 20%
    23:00 +15°C° 0 mm 2 mps 731 mmHg 20%

    25 January, Thursday

    Time Temperature Precipitation Wind Pressure Humidity
    00:00 +15°C° 0 mm 2 mps 731 mmHg 20%
    01:00 +15°C° 0 mm 2 mps 731 mmHg 21%
    02:00 +13°C° 0 mm 3 mps 730 mmHg 22%
    03:00 +13°C° 0 mm 3 mps 730 mmHg 22%
    04:00 +12°C° 0 mm 3 mps 730 mmHg 23%
    05:00 +12°C° 0 mm 3 mps 729 mmHg 24%
    06:00 +11°C° 0 mm 3 mps 729 mmHg 25%
    07:00 +11°C° 0 mm 3 mps 729 mmHg 26%
    08:00 +12°C° 0 mm 2 mps 729 mmHg 27%
    09:00 +13°C° 0 mm 3 mps 729 mmHg 24%
    10:00 +16°C° 0 mm 3 mps 729 mmHg 22%
    11:00 +18°C° 0 mm 3 mps 729 mmHg 19%
    12:00 +19°C° 0 mm 4 mps 728 mmHg 18%
    13:00 +21°C° 0 mm 4 mps 727 mmHg 16%
    14:00 +22°C° 0 mm 5 mps 727 mmHg 14%
    15:00 +22°C° 0 mm 6 mps 726 mmHg 14%
    16:00 +21°C° 0 mm 6 mps 726 mmHg 14%
    17:00 +21°C° 0 mm 7 mps 725 mmHg 14%
    18:00 +18°C° 0 mm 8 mps 726 mmHg 23%
    19:00 +17°C° 0 mm 8 mps 726 mmHg 33%
    20:00 +15°C° 0 mm 9 mps 726 mmHg 42%
    21:00 +13°C° 0 mm 8 mps 727 mmHg 41%
    22:00 +11°C° 0 mm 7 mps 728 mmHg 41%
    23:00 +10°C° 0 mm 7 mps 728 mmHg 40%
    Show more